Location: *
(18.5200°S, 46.4500°E)
Time: 08:15:45
(UTC+00:00)

Cosmos 2227 Rocket - Pass Details

Date: 19 July 2019
Orbit: 838 x 846 km, 71.0° (Epoch: 21 August)

Event Time Altitude Azimuth Distance (km) Brightness Sun altitude
Rises 16:11:32 0° 6° (N) 3,384 5.5 -22.5°
Reaches altitude 10° 16:14:13 10° 16° (NNE) 2,457 4.6 -23.1°
Enters shadow 16:16:53 23° 38° (NE) 1,704 3.6 -23.7°
